Location: Redding Observatory
(29.1111°N, 81.3442°W)
Time: 20:32:33
(UTC-05:00)

Hubble Space Telescope - Visible Passes

Search period start: 20 January 2022 00:00
Search period end: 30 January 2022 00:00
Orbit: 534 x 538 km, 28.5° (Epoch: 20 January)

Date Brightness Start Highest point End Pass type
(mag) Time Alt. Az. Time Alt. Az. Time Alt. Az.
20 Jan 3.4 04:48:25 18° ESE 04:48:25 18° ESE 04:49:33 10° ESE visible
20 Jan 2.5 06:23:43 12° WSW 06:26:21 21° SSW 06:29:30 10° SSE visible
21 Jan 3.9 04:37:53 12° ESE 04:37:53 12° ESE 04:38:14 10° ESE visible
21 Jan 2.8 06:13:11 13° SW 06:15:02 17° SSW 06:17:44 10° SSE visible
22 Jan 2.9 06:02:41 12° SW 06:03:42 13° SSW 06:05:43 10° S visible
23 Jan 3.2 05:52:13 10° SSW 05:52:21 10° SSW 05:52:46 10° SSW visible
27 Jan 3.6 20:27:30 10° SW 20:28:05 13° SW 20:28:05 13° SW visible
28 Jan 3.0 18:37:15 10° S 18:39:13 13° SSE 18:41:12 10° SE visible
28 Jan 3.0 20:16:03 10° SW 20:17:37 21° SW 20:17:37 21° SW visible
29 Jan 2.8 18:25:11 10° SSW 18:27:52 17° SSE 18:30:32 10° ESE visible
29 Jan 2.3 20:04:40 10° WSW 20:07:07 31° SW 20:07:07 31° SW visible
